Temp
78 78 77 77 76 77 76 76 76 76 75 76 76 76 76 77 77 77 78 77 77 77 77 77 78 77 78 78 77 77 77 77 77 77 76 76 76 76 76 75 74 74
78 78 78 78 77 77 76 77 76 76 75 75 76 76 76 77 77 78 77 77 78 78 78 78 77 78 77 77 77 77 77 77 76 78 76 76 76 76 77 76 76 75
78 78 78 77 78 77 78 78 77 76 76 76 76 76 76 77 77 77 77 78 77 78 77 77 77 77 78 77 77 77 77 76 76 78 77 76 76 76 76 78 77 76
78 78 79 79 79 78 78 77 76 76 77 76 76 77 77 78 78 77 77 78 77 77 78 78 78 78 78 78 77 77 77 77 77 77 77 77 76 77 76 76 77 76
78 78 79 79 79 78 78 77 77 77 77 77 78 77 76 77 77 77 77 77 77 77 77 77 78 78 77 77 77 76 77 77 77 77 76 76 76 76 77 76 76 76
78 78 78 78 78 78 77 77 77 77 78 78 77 77 77 77 77 77 77 77 78 78 78 78 78 78 78 77 77 77 77 77 77 76 76 76 77 77 77 76 76 76
78 78 78 79 79 78 77 77 77 78 78 78 77 77 77 77 77 77 77 77 78 77 78 77 77 77 78 77 77 76 77 77 77 76 76 76 76 76 77 77 76 76
79 79 79 79 79 78 78 78 78 77 78 77 77 77 77 78 77 78 78 78 78 77 77 78 77 77 78 77 77 76 77 77 77 76 76 76 76 76 76 76 76 76
79 79 78 78 79 79 79 79 79 78 78 77 78 78 78 78 78 78 77 77 77 77 77 77 77 77 78 77 77 77 77 77 77 77 76 76 75 76 76 76 76 76
78 78 79 79 79 79 79 80 80 79 78 78 78 79 78 78 78 78 78 77 77 77 77 77 77 77 77 77 77 77 77 77 77 77 77 77 77 77 77 76 76 76
79 79 79 78 79 80 80 80 80 80 79 79 79 79 79 78 77 78 77 77 77 77 77 77 78 78 77 78 78 78 78 78 77 77 77 77 77 77 77 77 76 76
79 79 79 79 79 79 80 80 81 80 80 80 79 79 78 79 77 77 78 77 77 78 78 78 78 78 77 78 79 78 78 78 78 78 78 78 78 78 78 78 77 77
79 79 78 79 79 79 80 80 80 81 81 80 80 80 79 79 78 77 78 78 78 78 78 78 78 78 78 78 78 78 78 78 78 78 78 78 78 78 79 78 78 78
79 79 78 78 79 78 79 80 80 80 80 80 80 79 79 79 79 78 78 79 79 79 79 79 78 78 78 78 78 78 78 78 78 78 78 78 78 78 79 79 79 79
78 79 79 78 78 78 78 78 78 79 79 79 79 79 79 80 80 80 79 78 79 79 79 79 79 79 79 79 78 78 78 78 78 78 78 77 78 78 78 78 79 79
78 78 78 78 78 77 77 78 78 78 78 78 78 79 79 79 79 79 80 79 79 79 79 79 79 79 75 68 70 78 78 78 78 78 78 78 77 77 78 78 79 80
77 77 78 77 77 77 77 77 77 78 78 77 78 78 78 78 78 78 79 80 79 79 79 79 79 79 69 65 65 68 76 78 78 78 78 78 78 77 77 78 79 79
78 77 77 77 77 77 77 77 77 77 77 77 77 78 77 79 78 78 78 79 79 80 80 79 80 71 66 64 64 64 67 78 79 79 78 78 78 78 78 78 78 79
77 77 77 77 77 77 77 77 77 77 77 77 77 78 79 77 77 78 78 78 79 78 79 80 80 70 65 64 64 64 63 70 79 79 78 78 78 78 78 78 78 78
78 77 77 77 77 77 77 77 77 76 77 78 79 78 77 77 78 78 78 77 78 78 78 80 80 71 65 63 62 62 63 65 76 78 79 79 79 79 79 79 78 78
78 77 77 77 77 77 77 77 77 77 77 78 79 78 77 77 77 77 78 78 79 79 79 79 81 69 64 62 61 61 62 64 74 76 78 78 79 79 79 79 79 79
79 78 77 78 77 77 77 76 77 77 77 78 78 79 79 79 79 79 78 78 79 79 79 78 81 68 64 62 60 60 61 68 73 74 75 77 78 78 79 79 80 79
79 79 78 78 78 77 77 77 77 77 77 78 78 78 79 79 79 79 79 79 79 78 78 78 80 71 63 61 60 59 61 71 72 74 74 76 77 78 78 79 80 80
80 79 79 78 78 77 77 78 79 79 79 79 78 78 79 80 80 79 80 80 80 79 80 79 80 74 63 60 59 58 63 72 73 73 74 75 76 77 78 78 79 75
81 80 80 79 78 78 79 79 79 79 80 80 80 80 79 80 80 79 80 80 81 81 75 78 80 75 63 60 58 57 63 74 74 74 74 75 76 76 77 78 78 76
81 80 80 80 79 79 79 80 80 80 80 80 80 80 80 80 80 80 79 80 81 81 81 80 80 80 75 60 58 56 58 73 75 75 74 75 76 76 77 77 78 79
MSLP
1014.72 1015.04 1015.44 1015.76 1016.00 1016.12 1016.44 1016.84 1017.04 1017.28 1017.48 1017.68 1017.92 1018.00 1018.04 1018.04 1018.20 1018.44 1018.56 1018.76 1018.92 1019.04 1019.12 1019.24 1019.36 1019.56 1019.72 1019.88 1020.04 1020.24 1020.44 1020.64 1020.72 1020.84 1021.04 1021.16 1021.32 1021.44 1021.64 1021.68 1021.80 1021.84
1014.36 1014.64 1014.96 1015.28 1015.68 1015.84 1016.08 1016.24 1016.60 1016.84 1017.20 1017.36 1017.44 1017.60 1017.72 1017.88 1017.96 1018.12 1018.40 1018.60 1018.72 1018.84 1018.92 1019.08 1019.20 1019.32 1019.52 1019.72 1019.92 1020.16 1020.36 1020.48 1020.68 1020.56 1020.92 1021.08 1021.16 1021.24 1021.36 1021.40 1021.48 1021.56
1014.00 1014.40 1014.72 1015.12 1015.32 1015.52 1015.68 1015.88 1016.12 1016.44 1016.76 1016.96 1017.16 1017.36 1017.52 1017.52 1017.76 1017.88 1018.08 1018.32 1018.56 1018.68 1018.80 1018.84 1019.00 1019.12 1019.28 1019.48 1019.68 1019.96 1020.16 1020.36 1020.56 1020.48 1020.68 1020.88 1020.92 1021.08 1021.08 1021.12 1021.28 1021.40
1013.68 1013.92 1014.24 1014.48 1014.76 1015.16 1015.40 1015.80 1016.04 1016.24 1016.44 1016.80 1016.92 1016.92 1017.12 1017.32 1017.48 1017.76 1017.96 1018.08 1018.36 1018.48 1018.56 1018.68 1018.80 1018.88 1019.04 1019.24 1019.48 1019.76 1019.88 1020.04 1020.12 1020.28 1020.56 1020.60 1020.68 1020.76 1020.88 1020.92 1021.04 1021.20
1013.32 1013.64 1013.88 1014.12 1014.40 1014.76 1015.20 1015.60 1015.84 1016.00 1016.20 1016.20 1016.44 1016.72 1016.96 1017.16 1017.40 1017.56 1017.76 1017.92 1018.04 1018.20 1018.36 1018.48 1018.56 1018.72 1018.80 1019.04 1019.24 1019.64 1019.76 1019.96 1020.00 1020.16 1020.44 1020.60 1020.48 1020.60 1020.60 1020.76 1020.96 1021.12
1013.04 1013.28 1013.52 1013.84 1014.16 1014.60 1015.00 1015.24 1015.40 1015.64 1015.84 1016.12 1016.24 1016.40 1016.64 1016.88 1017.16 1017.32 1017.48 1017.72 1017.80 1017.92 1018.12 1018.24 1018.40 1018.48 1018.60 1018.84 1019.08 1019.32 1019.56 1019.80 1019.88 1020.04 1020.28 1020.40 1020.40 1020.32 1020.40 1020.52 1020.72 1020.92
1012.84 1013.08 1013.36 1013.52 1013.92 1014.20 1014.56 1014.80 1015.08 1015.28 1015.52 1015.64 1015.96 1016.28 1016.40 1016.76 1016.92 1017.04 1017.16 1017.32 1017.52 1017.72 1017.88 1018.04 1018.20 1018.36 1018.40 1018.68 1018.92 1019.16 1019.28 1019.44 1019.64 1019.84 1020.08 1020.12 1020.20 1020.28 1020.20 1020.32 1020.44 1020.60
1012.44 1012.64 1012.96 1013.28 1013.68 1013.96 1014.24 1014.48 1014.76 1015.00 1015.12 1015.52 1015.84 1015.84 1016.04 1016.32 1016.52 1016.64 1016.80 1017.00 1017.28 1017.48 1017.64 1017.72 1017.88 1018.04 1018.20 1018.44 1018.72 1018.96 1019.12 1019.16 1019.40 1019.64 1019.88 1019.96 1020.04 1020.16 1020.04 1020.08 1020.20 1020.40
1012.00 1012.40 1012.68 1013.04 1013.40 1013.60 1013.88 1014.12 1014.36 1014.60 1014.80 1015.24 1015.44 1015.60 1015.72 1015.88 1016.08 1016.28 1016.48 1016.72 1017.00 1017.16 1017.36 1017.48 1017.56 1017.76 1017.92 1018.16 1018.40 1018.60 1018.80 1018.96 1019.04 1019.28 1019.52 1019.76 1019.88 1019.84 1019.84 1019.84 1020.08 1020.12
1011.80 1012.04 1012.44 1012.72 1013.08 1013.16 1013.48 1013.64 1013.88 1014.20 1014.44 1014.80 1015.00 1015.24 1015.52 1015.56 1015.68 1015.96 1016.24 1016.52 1016.72 1016.88 1017.04 1017.12 1017.28 1017.48 1017.64 1017.80 1018.00 1018.20 1018.44 1018.64 1018.76 1018.92 1019.04 1019.20 1019.32 1019.40 1019.52 1019.68 1019.76 1019.92
1011.48 1011.76 1012.16 1012.44 1012.64 1012.80 1013.04 1013.20 1013.48 1013.80 1014.08 1014.40 1014.68 1014.96 1015.04 1015.32 1015.56 1015.68 1016.00 1016.24 1016.44 1016.52 1016.64 1016.76 1016.84 1017.04 1017.32 1017.48 1017.60 1017.72 1017.96 1018.20 1018.40 1018.56 1018.68 1018.76 1018.80 1018.92 1019.00 1019.20 1019.40 1019.48
1011.12 1011.44 1011.72 1011.96 1012.20 1012.44 1012.64 1012.84 1013.08 1013.40 1013.68 1013.92 1014.20 1014.56 1014.80 1015.00 1015.28 1015.48 1015.64 1015.88 1015.92 1016.00 1016.12 1016.28 1016.40 1016.64 1016.88 1017.08 1017.28 1017.44 1017.64 1017.80 1017.96 1018.16 1018.28 1018.36 1018.44 1018.52 1018.60 1018.72 1018.88 1018.96
1010.72 1010.96 1011.16 1011.48 1011.76 1011.96 1012.20 1012.48 1012.76 1012.92 1013.20 1013.56 1013.72 1014.08 1014.44 1014.76 1014.92 1015.20 1015.24 1015.36 1015.48 1015.60 1015.76 1015.88 1016.08 1016.24 1016.48 1016.72 1016.92 1017.12 1017.32 1017.52 1017.72 1017.84 1017.96 1018.04 1018.08 1018.12 1018.16 1018.24 1018.32 1018.44
1010.12 1010.36 1010.76 1011.00 1011.24 1011.52 1011.80 1012.00 1012.28 1012.56 1012.76 1013.00 1013.32 1013.76 1014.00 1014.20 1014.48 1014.72 1014.84 1015.00 1015.12 1015.28 1015.32 1015.52 1015.80 1016.00 1016.16 1016.28 1016.48 1016.68 1016.92 1017.12 1017.28 1017.48 1017.68 1017.76 1017.76 1017.80 1017.80 1017.80 1017.88 1017.96
1009.64 1010.00 1010.28 1010.64 1010.92 1011.24 1011.52 1011.76 1011.96 1012.20 1012.44 1012.68 1013.00 1013.24 1013.40 1013.60 1013.80 1014.12 1014.52 1014.76 1014.84 1015.00 1015.12 1015.28 1015.52 1015.64 1015.64 1015.80 1016.12 1016.32 1016.44 1016.72 1016.88 1017.12 1017.32 1017.48 1017.56 1017.52 1017.48 1017.48 1017.56 1017.60
1009.28 1009.68 1010.00 1010.32 1010.68 1010.96 1011.16 1011.40 1011.68 1011.92 1012.16 1012.44 1012.64 1012.80 1013.00 1013.20 1013.48 1013.72 1014.00 1014.28 1014.56 1014.72 1014.84 1015.04 1015.16 1015.08 1015.04 1015.24 1015.44 1015.72 1016.04 1016.24 1016.44 1016.64 1016.84 1017.04 1017.28 1017.32 1017.24 1017.20 1017.24 1017.28
1009.04 1009.44 1009.72 1010.16 1010.32 1010.60 1010.88 1011.16 1011.40 1011.60 1011.88 1012.12 1012.28 1012.48 1012.68 1012.88 1013.16 1013.44 1013.56 1013.72 1014.00 1014.28 1014.56 1014.64 1014.68 1014.56 1014.64 1014.96 1015.16 1015.32 1015.56 1015.84 1016.12 1016.28 1016.40 1016.60 1016.76 1016.92 1017.00 1016.96 1016.92 1016.88
1008.68 1009.08 1009.52 1009.80 1010.08 1010.32 1010.52 1010.72 1011.00 1011.32 1011.60 1011.76 1012.00 1012.24 1012.32 1012.44 1012.80 1012.88 1013.04 1013.24 1013.48 1013.68 1013.96 1014.08 1014.16 1014.08 1014.36 1014.64 1014.88 1015.04 1015.20 1015.32 1015.52 1015.84 1016.00 1016.20 1016.28 1016.44 1016.48 1016.56 1016.60 1016.64
1008.28 1008.76 1009.12 1009.44 1009.68 1009.84 1010.08 1010.40 1010.72 1011.00 1011.24 1011.48 1011.68 1011.64 1011.88 1012.24 1012.28 1012.44 1012.64 1012.72 1013.00 1013.32 1013.44 1013.48 1013.60 1013.60 1014.00 1014.24 1014.44 1014.68 1014.84 1015.04 1015.08 1015.28 1015.60 1015.72 1015.84 1015.92 1016.04 1016.12 1016.20 1016.32
1007.92 1008.36 1008.72 1008.92 1009.16 1009.44 1009.72 1010.04 1010.32 1010.56 1010.64 1010.80 1011.04 1011.32 1011.64 1011.80 1011.88 1012.04 1012.12 1012.36 1012.52 1012.76 1012.92 1013.00 1013.08 1013.08 1013.48 1013.80 1014.04 1014.28 1014.48 1014.80 1014.84 1014.96 1015.08 1015.20 1015.32 1015.40 1015.48 1015.60 1015.68 1015.88
1007.56 1007.92 1008.28 1008.52 1008.76 1009.08 1009.40 1009.68 1009.92 1010.12 1010.36 1010.48 1010.72 1010.96 1011.24 1011.40 1011.48 1011.72 1011.76 1011.84 1012.00 1012.16 1012.40 1012.56 1012.44 1012.60 1013.04 1013.32 1013.60 1013.88 1014.20 1014.60 1014.64 1014.72 1014.76 1014.80 1014.76 1014.80 1014.88 1014.92 1015.00 1015.20
1007.04 1007.48 1007.80 1008.08 1008.44 1008.72 1009.08 1009.40 1009.56 1009.76 1010.04 1010.08 1010.32 1010.44 1010.56 1010.72 1010.96 1011.08 1011.32 1011.44 1011.48 1011.72 1012.04 1012.12 1011.84 1012.12 1012.48 1012.80 1013.12 1013.52 1013.92 1014.28 1014.36 1014.48 1014.52 1014.44 1014.40 1014.36 1014.32 1014.28 1014.40 1014.64
1006.44 1006.92 1007.32 1007.64 1007.96 1008.40 1008.76 1008.96 1009.20 1009.40 1009.52 1009.56 1010.04 1010.16 1010.36 1010.48 1010.56 1010.68 1010.68 1010.92 1011.16 1011.36 1011.56 1011.52 1011.48 1011.60 1011.96 1012.28 1012.64 1013.08 1013.64 1013.84 1014.04 1014.08 1014.08 1014.08 1014.00 1013.88 1013.88 1013.88 1013.96 1014.04
1005.88 1006.28 1006.76 1007.12 1007.56 1008.00 1008.20 1008.32 1008.36 1008.52 1008.80 1008.92 1009.48 1009.76 1009.92 1009.88 1010.00 1010.20 1010.24 1010.36 1010.60 1010.80 1010.80 1011.16 1011.12 1011.12 1011.48 1011.80 1012.16 1012.56 1012.88 1013.24 1013.48 1013.68 1013.68 1013.72 1013.68 1013.60 1013.52 1013.52 1013.44 1013.56
1005.32 1005.72 1006.12 1006.56 1007.04 1007.20 1007.32 1007.64 1007.84 1007.96 1008.00 1008.32 1008.68 1008.96 1009.16 1009.28 1009.56 1009.84 1009.92 1009.96 1009.96 1010.12 1010.32 1010.68 1010.72 1010.72 1010.88 1011.24 1011.60 1012.00 1012.40 1012.56 1012.84 1013.12 1013.32 1013.32 1013.44 1013.36 1013.16 1013.16 1013.16 1013.20
1004.80 1005.28 1005.60 1006.00 1006.36 1006.48 1006.68 1006.88 1006.96 1007.40 1007.80 1008.12 1008.32 1008.48 1008.76 1008.92 1009.12 1009.36 1009.64 1009.56 1009.48 1009.76 1009.88 1010.04 1010.32 1010.28 1010.32 1010.72 1011.04 1011.44 1011.80 1012.00 1012.20 1012.68 1012.88 1012.88 1012.92 1012.96 1013.08 1012.92 1012.88 1012.88
Wind_Speed
11 10 11 10 10 10 9 9 8 9 8 7 8 8 9 8 7 8 8 6 7 6 6 6 6 6 5 5 5 5 5 6 5 4 5 5 5 5 5 6 5 6
13 12 10 10 9 8 8 9 9 9 8 8 8 7 6 6 7 8 8 8 7 7 6 6 6 6 6 6 6 6 6 6 6 3 5 6 5 5 6 6 6 5
13 12 12 12 12 12 12 9 9 8 8 8 7 6 7 7 7 7 7 7 7 7 7 7 6 6 6 6 6 5 6 7 7 4 5 6 5 5 5 5 5 6
14 14 13 13 12 11 10 8 8 7 6 7 9 8 7 6 7 7 7 8 8 8 7 6 7 6 6 6 6 5 5 5 5 5 5 4 4 5 5 4 5 4
14 13 12 12 10 9 9 9 10 9 9 10 7 7 7 7 7 7 7 8 8 8 7 7 7 7 6 6 6 5 5 5 5 5 5 6 5 5 5 5 5 6
12 12 12 11 11 10 10 11 11 10 10 9 9 8 8 8 8 8 8 8 7 7 7 6 7 6 6 6 5 5 5 5 5 6 6 7 5 5 4 5 6 7
13 13 13 11 11 11 11 11 10 10 9 9 6 8 8 9 9 9 9 9 9 8 8 8 8 8 6 5 6 5 5 6 6 7 7 6 5 6 5 6 6 7
14 13 13 11 12 12 12 11 10 10 10 8 10 9 9 10 10 10 9 10 8 9 9 9 9 8 6 6 6 6 6 5 6 7 7 6 6 7 6 5 5 7
14 13 12 14 14 12 11 11 10 10 9 10 10 9 9 10 11 10 10 9 9 9 9 9 9 8 7 7 7 7 7 6 6 7 7 7 8 8 7 6 7 7
14 13 14 13 13 13 13 12 10 10 9 10 10 9 9 10 10 10 9 9 10 10 10 10 9 9 8 7 8 8 8 8 7 7 7 8 8 7 7 7 8 7
15 14 14 15 14 11 12 11 11 9 9 10 9 10 10 9 9 9 9 10 10 11 11 11 11 10 9 8 7 7 8 7 7 7 8 8 8 8 7 7 7 9
15 14 14 16 15 13 13 12 11 11 11 9 10 11 10 10 10 9 10 11 11 12 11 11 10 10 10 10 8 7 7 7 7 7 8 8 7 7 7 7 8 8
15 15 14 14 14 14 12 12 12 11 11 11 11 11 10 9 9 10 10 11 12 11 11 11 11 10 9 9 9 9 9 8 8 8 7 7 7 8 8 8 8 8
15 14 13 13 13 12 13 13 12 12 12 12 10 11 10 11 11 11 11 10 11 11 11 10 9 9 9 10 10 10 8 8 8 8 7 7 7 8 8 8 9 8
13 12 12 12 13 12 12 12 12 12 11 11 11 11 10 11 11 11 11 11 11 11 11 9 9 10 10 10 10 10 9 9 9 8 8 8 8 8 8 8 8 8
13 12 12 13 13 13 13 12 12 11 11 11 12 12 11 10 10 11 10 11 11 11 10 9 9 9 11 16 13 10 9 8 8 9 9 9 9 9 9 8 8 8
12 12 12 13 13 12 11 12 12 11 11 12 12 12 12 11 11 11 11 11 12 11 10 10 9 10 15 15 16 16 12 10 10 9 9 9 8 10 10 9 7 8
12 12 12 12 12 13 12 12 11 11 12 12 12 12 12 11 12 13 12 12 11 10 10 9 10 13 15 15 16 17 15 11 9 8 9 8 9 9 9 8 8 8
12 13 13 13 13 13 12 11 12 12 13 12 13 12 11 12 13 13 12 12 12 12 12 12 10 13 15 16 16 17 18 15 10 10 10 9 9 9 10 10 10 9
13 13 14 14 13 13 12 13 13 14 13 12 12 11 11 12 13 13 13 12 12 12 12 11 11 14 16 17 17 17 18 14 11 11 10 10 11 11 9 10 11 10
13 14 14 13 13 13 13 13 13 13 13 12 10 11 12 13 13 13 13 12 13 12 11 11 10 15 15 17 17 17 17 13 9 10 10 11 11 11 12 12 11 10
14 14 14 13 13 13 13 13 13 13 13 12 11 11 10 11 10 11 12 13 13 12 11 13 11 16 16 17 17 16 16 10 8 8 10 10 11 12 12 11 11 11
14 15 14 14 13 13 13 13 13 13 13 11 12 11 10 10 12 10 10 11 12 12 14 13 12 14 16 17 17 17 13 8 8 8 9 11 12 12 12 12 11 11
14 15 15 14 13 14 14 14 14 13 13 12 12 12 11 12 10 11 11 11 13 13 12 11 11 12 15 16 17 18 15 10 8 8 9 11 11 11 10 10 12 16
14 14 14 14 14 15 15 15 14 14 13 12 10 10 11 10 10 9 10 10 10 11 14 14 11 12 16 16 17 18 15 10 10 9 9 9 8 9 9 10 10 11
12 14 14 13 15 15 13 14 13 11 10 10 10 10 10 9 10 9 11 10 10 11 10 11 12 13 12 17 17 18 19 12 9 9 10 10 9 9 9 8 9 9
Wind_Direction
191 190 193 193 198 198 194 191 190 192 194 188 194 200 200 203 189 197 203 200 204 208 202 196 192 194 192 189 187 187 190 198 202 188 194 194 208 203 204 200 196 203
192 191 193 194 195 196 197 192 191 193 191 191 199 192 201 193 198 195 196 199 200 208 203 202 201 200 194 192 187 191 204 205 208 184 191 196 208 202 216 208 208 201
192 192 192 194 196 197 196 193 192 192 187 192 188 187 195 198 198 197 198 198 202 203 203 203 203 204 199 196 188 192 201 205 213 195 196 205 203 203 216 211 213 201
194 193 195 198 197 196 193 190 194 191 183 179 196 195 192 196 196 196 199 201 206 209 206 201 206 203 200 198 187 197 198 201 198 187 203 207 206 206 213 204 215 214
193 194 197 198 197 191 185 193 197 194 195 202 193 185 191 195 195 199 197 202 208 210 206 209 206 206 203 198 190 197 194 201 188 187 201 212 209 201 210 198 210 217
194 195 195 195 192 186 189 197 199 196 200 195 197 188 196 193 199 203 201 202 203 208 211 209 209 210 201 199 190 202 194 197 191 185 203 214 215 205 206 202 209 220
193 193 196 194 191 190 194 198 198 198 199 200 182 193 187 194 201 206 207 208 209 210 212 214 215 215 202 196 196 200 200 200 186 190 202 215 209 215 211 209 211 220
194 194 194 192 194 193 199 197 196 198 197 184 194 198 188 196 201 205 208 208 207 212 214 218 218 216 201 190 201 204 207 197 198 191 205 211 204 222 212 212 209 219
192 192 191 194 196 197 199 196 196 198 189 192 199 197 196 200 203 205 206 206 209 211 214 219 219 216 204 200 208 208 209 207 201 198 202 206 209 219 214 205 215 222
192 192 192 194 196 199 200 200 197 194 188 197 199 196 198 205 204 203 204 206 210 213 213 219 217 214 210 206 211 209 212 213 206 206 208 211 216 218 210 204 215 223
193 192 194 197 199 199 201 199 198 191 190 196 194 201 203 200 203 200 203 206 212 213 214 216 218 212 213 211 210 211 214 213 212 212 214 216 217 220 212 209 212 221
194 194 196 198 199 200 201 200 198 198 196 195 195 201 201 201 200 199 203 208 214 216 215 217 216 213 213 215 210 206 211 214 216 217 219 220 219 220 216 213 216 221
195 197 197 197 198 200 200 200 201 198 197 199 197 201 200 202 201 202 207 210 215 216 217 217 216 215 216 214 214 212 213 214 217 218 221 220 223 223 223 221 219 220
196 196 196 197 197 198 200 201 201 202 203 203 196 200 204 206 205 207 210 213 217 218 221 218 216 215 217 215 213 211 210 214 216 217 219 224 226 225 225 226 223 222
194 194 195 196 197 198 201 201 201 202 202 201 200 204 207 209 210 211 214 217 220 221 223 218 217 218 217 215 212 212 211 216 216 217 219 223 228 228 229 228 229 226
191 192 193 195 196 199 201 200 200 201 201 202 204 206 207 207 209 213 215 218 220 221 221 218 220 222 219 210 207 211 211 216 219 222 223 227 230 235 234 228 228 227
189 193 192 195 198 199 199 199 202 200 201 204 207 206 206 206 206 212 216 217 219 219 217 218 221 224 219 206 208 209 209 215 218 223 222 226 228 235 241 237 231 228
191 190 193 197 196 200 199 200 199 201 204 206 207 207 209 206 209 214 216 217 219 219 220 218 223 223 216 208 206 207 208 214 217 220 221 224 229 232 238 237 237 234
187 189 194 196 198 199 199 197 200 203 206 207 209 210 209 209 214 214 216 216 218 220 223 223 226 219 213 210 207 205 207 210 223 221 222 226 226 229 235 236 238 239
189 191 195 199 197 198 198 200 201 206 207 208 211 210 212 216 216 218 219 217 218 221 224 225 225 223 210 210 210 207 206 203 222 222 225 228 229 229 230 234 234 235
190 193 198 198 198 198 199 203 203 206 207 208 207 209 211 215 216 218 220 220 220 220 223 225 225 219 211 209 211 208 206 199 214 221 226 231 231 231 233 235 235 231
190 195 199 198 198 199 200 204 205 206 207 207 209 213 215 219 220 220 222 222 222 221 224 230 228 214 210 210 208 206 198 195 204 213 222 228 231 232 234 235 234 232
192 195 198 199 198 198 201 204 205 207 210 205 209 213 212 212 218 215 221 223 222 220 224 231 234 218 209 210 206 198 188 195 200 210 221 227 231 231 234 236 234 232
194 195 198 199 196 199 202 205 207 208 209 204 206 209 212 213 210 219 221 221 222 223 221 227 233 225 209 209 205 195 191 194 200 207 223 227 233 234 234 236 235 231
194 196 199 197 197 202 203 205 206 206 207 201 204 209 216 214 214 218 222 223 221 224 223 222 231 231 213 209 203 198 195 206 203 213 224 226 224 235 231 235 238 234
194 197 199 196 201 205 204 208 207 207 203 197 204 206 212 211 211 214 219 223 221 221 221 218 225 233 219 206 205 200 195 200 207 213 225 227 224 226 237 232 230 236